Simultaneous Nadir Overpasses (SNOs) Predictions

Prediction of SNOs between GOES-17 and LANDSAT-8 Satellite Orbit:

Table of predicted SNOs for the next 14.0 days since TLE Epoch: 3/30/2024
Index Date Time (GOES-17) GOES-17 Lat,Lon LANDSAT-8 Lat,Lon Distance(km) Time Diff (sec)
1 03/31/2024 17:06:12 -0.01,-104.68 -0.30,-103.28 159.57 80
2 04/01/2024 05:27:37 0.01,-104.68 -0.77,-108.48 431.52 80
3 04/02/2024 16:54:01 -0.02,-104.68 -0.95,-100.33 494.41 80
4 04/03/2024 05:15:25 0.02,-104.67 -0.17,-105.52 96.66 80
5 04/05/2024 05:00:33 0.03,-104.66 0.46,-102.56 238.61 80
6 04/05/2024 17:21:49 -0.03,-104.67 0.59,-107.73 347.68 80
7 04/07/2024 17:09:35 0.02,-104.66 0.06,-104.75 10.57 80
8 04/09/2024 17:00:02 0.02,-104.66 -0.57,-101.79 325.70 80
9 04/10/2024 05:21:26 -0.02,-104.66 -0.52,-106.99 264.73 80
10 04/12/2024 05:06:33 -0.00,-104.66 0.15,-104.04 71.26 80
